Weather in Pushkino

Russia / Omsk Oblast     55°05′34″N   73°28′11″E
temp.,
°C
wind,
m/s
gust,
m/s
humid.,
%
clouds,
%
prec.,
mm/h
press.,
hPa
HPBL,
m
21 april, wed
wed2100:000wsw61446100 0.0 1024561
03:00+1w71452100 0.0 1021555
06:000nw5107076 0.0 1022443
09:00+1nnw69625 0.0 1024823
12:00+4nnw794859 0.0 10251457
15:00+6n794375 0.0 10261783
18:00+4nne794579 0.0 10301733
21:00+1nne59615 0.0 1033800
22 april, thu
thu2200:00−1ne48670 0.0 1036723
03:00−1nne37695 0.0 1038537
06:00−2ne36723 0.0 1041389
09:000ene45545 0.0 1043720
12:00+4e34403 0.0 10441218
15:00+6ese22363 0.0 10441450
18:00+6ese23355 0.0 10441465
21:00+4se34493 0.0 104598
23 april, fri
fri2300:00+2se34570 0.0 104581
03:00+1sse37630 0.0 1045152
06:000sse37630 0.0 1046167
09:00+3sse45480 0.0 1046515
12:00+6s34380 0.0 10451234
15:00+8sse44310 0.0 10431439
18:00+9sse34300 0.0 10421581
21:00+6se36450 0.0 1042160
24 april, sat
sat2400:00+3sse38555 0.0 1041174
03:00+2sse35613 0.0 1040103
06:00+1sse356568 0.0 1040111
09:00+5sse455054 0.0 1039403
12:00+8s45365 0.0 10371353
15:00+10sse443099 0.0 10351566
18:00+10sse3429100 0.0 10341571
21:00+7se3642100 0.0 1033179
25 april, sun
sun2500:00+6sse4105194 0.0 1033251
03:00+4sse41056100 0.0 1032236
06:00+3sse41059100 0.0 1031249
09:00+6sse51148100 0.0 1031492
12:00+10sse7933100 0.0 10291100
15:00+12sse71026100 0.0 10271478
18:00+12s6927100 0.0 10261455
21:00+9se51335100 0.0 1025370